| time (UTC) | temp F | wind direction | speed knots | gust knots | rain 1hr in | rain 24hr in | rain mn in | humidity % | barometer mb |
| 20260901131501 | 73 | 261 | 0.0 | 1.7 | 0.00 | 0.01 | 0.00 | 95 | 1014.8 |
| 20260901130458 | 72 | 177 | 1.7 | 4.3 | 0.00 | 0.01 | 0.00 | 95 | 1014.8 |
| 20260901125501 | 72 | 191 | 1.7 | 6.1 | 0.00 | 0.01 | 0.00 | 95 | 1014.9 |
| 20260901124455 | 71 | 190 | 1.7 | 4.3 | 0.00 | 0.01 | 0.00 | 95 | 1014.9 |
| 20260901123456 | 71 | 202 | 0.0 | 3.5 | 0.00 | 0.01 | 0.00 | 95 | 1014.8 |
| 20260901122500 | 70 | 180 | 0.0 | 0.0 | 0.00 | 0.01 | 0.00 | 94 | 1014.7 |
| 20260901121457 | 69 | 180 | 0.0 | 0.0 | 0.00 | 0.01 | 0.00 | 93 | 1014.5 |
| 20260901120457 | 69 | 180 | 0.0 | 0.0 | 0.00 | 0.01 | 0.00 | 93 | 1014.6 |
| 20260901115459 | 69 | 180 | 0.0 | 0.0 | 0.00 | 0.01 | 0.00 | 93 | 1014.5 |
| 20260901114457 | 69 | 180 | 0.0 | 0.0 | 0.00 | 0.01 | 0.00 | 93 | 1014.5 |
| 20260901113457 | 69 | 180 | 0.0 | 0.0 | 0.00 | 0.01 | 0.00 | 92 | 1014.5 |
| 20260901112456 | 69 | 180 | 0.0 | 0.0 | 0.00 | 0.01 | 0.00 | 92 | 1014.3 |
| 20260901111456 | 69 | 180 | 0.0 | 0.0 | 0.00 | 0.01 | 0.00 | 92 | 1014.4 |
| 20260901110454 | 69 | 180 | 0.0 | 0.0 | 0.00 | 0.01 | 0.00 | 92 | 1014.3 |
| 20260901105456 | 69 | 180 | 0.0 | 0.0 | 0.00 | 0.01 | 0.00 | 92 | 1014.2 |
| 20260901104453 | 69 | 180 | 0.0 | 0.0 | 0.00 | 0.01 | 0.00 | 92 | 1014.1 |
| 20260901103451 | 69 | 180 | 0.0 | 0.0 | 0.00 | 0.01 | 0.00 | 92 | 1014.1 |
| 20260901102453 | 69 | 180 | 0.0 | 0.0 | 0.00 | 0.01 | 0.00 | 92 | 1014.2 |
| 20260901101450 | 70 | 180 | 0.0 | 0.0 | 0.00 | 0.01 | 0.00 | 92 | 1013.9 |
| 20260901100447 | 70 | 180 | 0.0 | 0.0 | 0.00 | 0.01 | 0.00 | 92 | 1013.9 |
| 20260901095449 | 70 | 180 | 0.0 | 0.0 | 0.00 | 0.01 | 0.00 | 92 | 1013.9 |
| 20260901094447 | 70 | 180 | 0.0 | 0.0 | 0.00 | 0.01 | 0.00 | 92 | 1014.0 |
| 20260901093451 | 70 | 180 | 0.0 | 0.0 | 0.00 | 0.01 | 0.00 | 92 | 1014.0 |
| 20260901092453 | 70 | 180 | 0.0 | 0.0 | 0.00 | 0.01 | 0.00 | 92 | 1014.1 |
| 20260901091449 | 70 | 180 | 0.0 | 0.0 | 0.00 | 0.01 | 0.00 | 91 | 1014.0 |
| 20260901090448 | 70 | 180 | 0.0 | 0.0 | 0.00 | 0.01 | 0.00 | 91 | 1013.9 |
| 20260901085441 | 70 | 180 | 0.0 | 0.0 | 0.00 | 0.01 | 0.00 | 91 | 1013.8 |
| 20260901084442 | 70 | 180 | 0.0 | 0.0 | 0.00 | 0.01 | 0.00 | 90 | 1013.7 |
| 20260901083443 | 71 | 180 | 0.0 | 0.0 | 0.00 | 0.01 | 0.00 | 90 | 1013.6 |
| 20260901082443 | 71 | 180 | 0.0 | 0.0 | 0.00 | 0.01 | 0.00 | 90 | 1013.7 |
| 20260901081441 | 71 | 180 | 0.0 | 0.0 | 0.00 | 0.01 | 0.00 | 90 | 1013.7 |
| 20260901080442 | 71 | 180 | 0.0 | 0.0 | 0.00 | 0.01 | 0.00 | 90 | 1013.7 |
| 20260901075441 | 71 | 180 | 0.0 | 0.0 | 0.00 | 0.01 | 0.00 | 89 | 1013.7 |
| 20260901074444 | 72 | 180 | 0.0 | 0.0 | 0.00 | 0.01 | 0.00 | 89 | 1013.6 |
| 20260901073457 | 72 | 180 | 0.0 | 0.0 | 0.00 | 0.01 | 0.00 | 89 | 1013.6 |
| 20260901072443 | 72 | 180 | 0.0 | 0.0 | 0.00 | 0.01 | 0.00 | 89 | 1013.7 |
| 20260901071437 | 73 | 180 | 0.0 | 0.0 | 0.00 | 0.01 | 0.00 | 89 | 1013.7 |
| 20260901070434 | 73 | 180 | 0.0 | 0.0 | 0.00 | 0.01 | 0.00 | 88 | 1013.9 |
| 20260901065434 | 73 | 180 | 0.0 | 0.0 | 0.00 | 0.01 | 0.00 | 88 | 1013.8 |
| 20260901064437 | 73 | 180 | 0.0 | 0.0 | 0.00 | 0.01 | 0.00 | 88 | 1013.7 |
| 20260901063436 | 74 | 180 | 0.0 | 0.0 | 0.00 | 0.01 | 0.00 | 88 | 1013.7 |
| 20260901062437 | 74 | 180 | 0.0 | 0.0 | 0.00 | 0.01 | 0.00 | 88 | 1013.8 |
| 20260901061435 | 74 | 180 | 0.0 | 0.0 | 0.00 | 0.01 | 0.00 | 88 | 1013.8 |
| 20260901060438 | 74 | 180 | 0.0 | 0.0 | 0.00 | 0.01 | 0.00 | 88 | 1013.8 |
| 20260901055431 | 74 | 180 | 0.0 | 0.0 | 0.00 | 0.01 | 0.00 | 88 | 1013.9 |
| 20260901054430 | 74 | 190 | 0.0 | 1.7 | 0.00 | 0.01 | 0.00 | 88 | 1014.1 |
| 20260901053429 | 74 | 184 | 0.0 | 3.5 | 0.00 | 0.01 | 0.00 | 88 | 1014.2 |
| 20260901052426 | 74 | 186 | 0.0 | 1.7 | 0.00 | 0.01 | 0.00 | 87 | 1014.2 |
| 20260901051424 | 74 | 171 | 0.0 | 3.5 | 0.00 | 0.01 | 0.00 | 87 | 1014.2 |
| 20260901050424 | 75 | 224 | 0.0 | 1.7 | 0.00 | 0.01 | 0.00 | 87 | 1014.2 |
| 20260901045425 | 75 | 224 | 0.0 | 3.5 | 0.00 | 0.01 | 0.00 | 87 | 1014.1 |
| 20260901044427 | 74 | 208 | 0.0 | 3.5 | 0.00 | 0.01 | 0.00 | 87 | 1014.1 |
| 20260901043424 | 74 | 172 | 0.0 | 6.1 | 0.00 | 0.01 | 0.00 | 87 | 1014.1 |
| 20260901042425 | 74 | 219 | 1.7 | 7.8 | 0.00 | 0.01 | 0.00 | 87 | 1014.0 |
| 20260901041423 | 74 | 186 | 1.7 | 6.1 | 0.00 | 0.01 | 0.00 | 87 | 1013.9 |
| 20260901040424 | 74 | 213 | 1.7 | 7.8 | 0.00 | 0.01 | 0.00 | 87 | 1014.1 |
| 20260901035423 | 74 | 178 | 0.0 | 4.3 | 0.00 | 0.01 | 0.01 | 86 | 1014.1 |
| 20260901034427 | 74 | 183 | 1.7 | 7.8 | 0.00 | 0.01 | 0.01 | 86 | 1014.1 |
| 20260901033423 | 74 | 200 | 3.5 | 7.8 | 0.00 | 0.01 | 0.01 | 85 | 1014.1 |
| 20260901032421 | 73 | 212 | 3.5 | 9.6 | 0.00 | 0.01 | 0.01 | 85 | 1014.2 |
| 20260901031423 | 73 | 181 | 3.5 | 10.4 | 0.00 | 0.01 | 0.01 | 85 | 1014.2 |
| 20260901030421 | 73 | 184 | 1.7 | 6.1 | 0.00 | 0.01 | 0.01 | 85 | 1014.2 |
| 20260901025422 | 73 | 219 | 1.7 | 4.3 | 0.00 | 0.01 | 0.01 | 84 | 1014.2 |
| 20260901024422 | 73 | 215 | 1.7 | 6.1 | 0.00 | 0.01 | 0.01 | 85 | 1014.2 |
| 20260901023425 | 73 | 201 | 1.7 | 4.3 | 0.00 | 0.01 | 0.01 | 85 | 1014.1 |
| 20260901022417 | 73 | 195 | 1.7 | 4.3 | 0.00 | 0.01 | 0.01 | 85 | 1014.2 |
| 20260901021417 | 73 | 187 | 1.7 | 6.1 | 0.00 | 0.01 | 0.01 | 85 | 1014.2 |
| 20260901020413 | 72 | 194 | 3.5 | 7.8 | 0.00 | 0.01 | 0.01 | 86 | 1014.3 |
| 20260901015413 | 72 | 191 | 3.5 | 7.8 | 0.00 | 0.01 | 0.01 | 87 | 1014.4 |
| 20260901014413 | 72 | 181 | 3.5 | 9.6 | 0.00 | 0.01 | 0.01 | 87 | 1014.4 |
| 20260901013414 | 73 | 164 | 3.5 | 7.8 | 0.00 | 0.01 | 0.01 | 88 | 1014.1 |
| 20260901012417 | 73 | 182 | 1.7 | 6.1 | 0.00 | 0.01 | 0.01 | 88 | 1014.2 |
| 20260901011409 | 73 | 194 | 1.7 | 6.1 | 0.00 | 0.01 | 0.01 | 88 | 1014.0 |
| 20260901010411 | 73 | 209 | 1.7 | 4.3 | 0.00 | 0.01 | 0.01 | 88 | 1013.9 |
| 20260901005409 | 73 | 198 | 0.0 | 4.3 | 0.00 | 0.01 | 0.01 | 88 | 1013.7 |
| 20260901004412 | 73 | 202 | 0.0 | 3.5 | 0.00 | 0.01 | 0.01 | 87 | 1013.6 |
| 20260901003411 | 74 | 174 | 1.7 | 4.3 | 0.00 | 0.01 | 0.01 | 87 | 1013.4 |
| 20260901002409 | 74 | 174 | 1.7 | 6.1 | 0.00 | 0.01 | 0.01 | 87 | 1013.4 |
| 20260901001408 | 74 | 168 | 1.7 | 4.3 | 0.00 | 0.01 | 0.01 | 87 | 1013.4 |
| 20260901000413 | 74 | 174 | 1.7 | 4.3 | 0.00 | 0.01 | 0.01 | 86 | 1013.6 |
| 20260831235412 | 74 | 157 | 1.7 | 4.3 | 0.00 | 0.01 | 0.01 | 86 | 1013.6 |
| 20260831234417 | 74 | 175 | 1.7 | 4.3 | 0.00 | 0.01 | 0.01 | 86 | 1013.6 |
| 20260831233404 | 75 | 146 | 1.7 | 6.1 | 0.00 | 0.01 | 0.01 | 86 | 1013.7 |
| 20260831232405 | 75 | 162 | 3.5 | 6.1 | 0.00 | 0.01 | 0.01 | 87 | 1013.7 |
| 20260831231405 | 75 | 200 | 3.5 | 7.8 | 0.00 | 0.01 | 0.01 | 87 | 1013.9 |
| 20260831230404 | 75 | 209 | 1.7 | 4.3 | 0.00 | 0.01 | 0.01 | 87 | 1013.9 |
| 20260831225403 | 75 | 239 | 1.7 | 4.3 | 0.00 | 0.01 | 0.01 | 87 | 1014.1 |
| 20260831224402 | 75 | 225 | 3.5 | 6.1 | 0.00 | 0.01 | 0.01 | 87 | 1014.2 |
| 20260831223403 | 74 | 183 | 3.5 | 9.6 | 0.00 | 0.01 | 0.01 | 88 | 1014.4 |
| 20260831222402 | 75 | 229 | 3.5 | 9.6 | 0.00 | 0.01 | 0.01 | 88 | 1014.5 |
| 20260831221404 | 75 | 192 | 1.7 | 7.8 | 0.00 | 0.01 | 0.01 | 89 | 1014.6 |
| 20260831220359 | 74 | 161 | 3.5 | 7.8 | 0.00 | 0.01 | 0.01 | 89 | 1014.7 |
| 20260831215357 | 74 | 172 | 1.7 | 7.8 | 0.00 | 0.01 | 0.01 | 89 | 1015.0 |
| 20260831214358 | 74 | 184 | 3.5 | 7.8 | 0.00 | 0.01 | 0.01 | 89 | 1014.5 |
| 20260831213355 | 74 | 159 | 3.5 | 6.1 | 0.00 | 0.01 | 0.01 | 90 | 1014.6 |
| 20260831212355 | 74 | 159 | 3.5 | 7.8 | 0.00 | 0.01 | 0.01 | 90 | 1014.7 |
| 20260831211356 | 74 | 185 | 1.7 | 6.1 | 0.00 | 0.01 | 0.01 | 90 | 1015.1 |
| 20260831210356 | 74 | 161 | 3.5 | 7.8 | 0.00 | 0.01 | 0.01 | 90 | 1014.9 |
| 20260831205354 | 74 | 191 | 3.5 | 6.1 | 0.00 | 0.01 | 0.01 | 90 | 1014.8 |
| 20260831204407 | 74 | 166 | 3.5 | 9.6 | 0.00 | 0.01 | 0.01 | 90 | 1014.9 |
| 20260831203356 | 74 | 169 | 3.5 | 7.8 | 0.00 | 0.01 | 0.01 | 90 | 1015.1 |
| 20260831202353 | 73 | 139 | 3.5 | 7.8 | 0.00 | 0.01 | 0.01 | 91 | 1015.1 |
| 20260831201355 | 73 | 138 | 3.5 | 6.1 | 0.00 | 0.01 | 0.01 | 91 | 1015.5 |
| 20260831200354 | 73 | 130 | 1.7 | 6.1 | 0.00 | 0.01 | 0.01 | 92 | 1015.5 |
| 20260831195354 | 73 | 142 | 1.7 | 6.1 | 0.01 | 0.01 | 0.01 | 92 | 1015.7 |
| 20260831194352 | 73 | 55 | 0.0 | 4.3 | 0.01 | 0.01 | 0.01 | 93 | 1015.8 |
| 20260831193356 | 73 | 50 | 0.0 | 3.5 | 0.01 | 0.01 | 0.01 | 93 | 1016.1 |
| 20260831192353 | 73 | 42 | 0.0 | 3.5 | 0.01 | 0.01 | 0.01 | 92 | 1016.4 |
| 20260831191351 | 73 | 41 | 0.0 | 4.3 | 0.01 | 0.01 | 0.01 | 92 | 1016.7 |
| 20260831190352 | 73 | 40 | 0.0 | 3.5 | 0.01 | 0.01 | 0.01 | 91 | 1016.5 |
| 20260831185351 | 73 | 31 | 0.0 | 0.0 | 0.00 | 0.00 | 0.00 | 91 | 1016.6 |
| 20260831184352 | 73 | 19 | 0.0 | 4.3 | 0.00 | 0.00 | 0.00 | 91 | 1016.7 |
| 20260831183351 | 74 | 19 | 1.7 | 4.3 | 0.00 | 0.00 | 0.00 | 90 | 1016.9 |
| 20260831182352 | 74 | 0 | 0.0 | 1.7 | 0.00 | 0.00 | 0.00 | 90 | 1017.0 |
| 20260831181353 | 73 | 146 | 0.0 | 1.7 | 0.00 | 0.00 | 0.00 | 89 | 1016.1 |
| 20260831180348 | 73 | 146 | 1.7 | 4.3 | 0.00 | 0.00 | 0.00 | 89 | 1015.9 |
| 20260831175350 | 73 | 157 | 1.7 | 4.3 | 0.00 | 0.00 | 0.00 | 89 | 1015.9 |
| 20260831174350 | 73 | 185 | 1.7 | 4.3 | 0.00 | 0.00 | 0.00 | 91 | 1016.0 |
| 20260831173350 | 73 | 160 | 0.0 | 3.5 | 0.00 | 0.00 | 0.00 | 90 | 1016.3 |
| 20260831172350 | 73 | 315 | 0.0 | 0.0 | 0.00 | 0.00 | 0.00 | 88 | 1016.2 |
| 20260831171350 | 73 | 315 | 0.0 | 0.0 | 0.00 | 0.00 | 0.00 | 88 | 1016.5 |
| 20260831170346 | 74 | 315 | 0.0 | 1.7 | 0.00 | 0.01 | 0.00 | 87 | 1016.5 |
| 20260831165347 | 74 | 315 | 0.0 | 0.0 | 0.00 | 0.01 | 0.00 | 85 | 1016.3 |
| 20260831164345 | 74 | 315 | 0.0 | 0.0 | 0.00 | 0.01 | 0.00 | 85 | 1016.6 |
| 20260831163345 | 74 | 315 | 0.0 | 4.3 | 0.00 | 0.02 | 0.00 | 84 | 1017.3 |
| 20260831162344 | 75 | 315 | 1.7 | 4.3 | 0.00 | 0.03 | 0.00 | 83 | 1017.9 |
| 20260831161342 | 75 | 315 | 1.7 | 6.1 | 0.00 | 0.07 | 0.00 | 84 | 1018.0 |
| 20260831160344 | 75 | 321 | 1.7 | 6.1 | 0.00 | 0.15 | 0.00 | 84 | 1018.0 |
| 20260831155342 | 74 | 322 | 0.0 | 4.3 | 0.00 | 0.18 | 0.00 | 85 | 1017.8 |
| 20260831154339 | 74 | 318 | 0.0 | 3.5 | 0.00 | 0.20 | 0.00 | 87 | 1017.5 |
| 20260831153340 | 73 | 178 | 0.0 | 1.7 | 0.00 | 0.23 | 0.00 | 88 | 1017.4 |
| 20260831152340 | 73 | 257 | 0.0 | 3.5 | 0.00 | 0.25 | 0.00 | 89 | 1017.3 |
| 20260831151340 | 73 | 177 | 0.0 | 1.7 | 0.00 | 0.26 | 0.00 | 90 | 1017.2 |
| 20260831150336 | 72 | 177 | 1.7 | 6.1 | 0.00 | 0.29 | 0.00 | 91 | 1017.0 |
| 20260831145343 | 72 | 181 | 0.0 | 3.5 | 0.00 | 0.30 | 0.00 | 92 | 1016.9 |
| 20260831144334 | 72 | 226 | 0.0 | 1.7 | 0.00 | 0.32 | 0.00 | 92 | 1016.7 |
| 20260831143332 | 72 | 211 | 0.0 | 4.3 | 0.00 | 0.34 | 0.00 | 93 | 1016.5 |
| 20260831142332 | 71 | 192 | 0.0 | 3.5 | 0.00 | 0.36 | 0.00 | 93 | 1016.5 |
| 20260831141333 | 71 | 192 | 0.0 | 3.5 | 0.00 | 0.40 | 0.00 | 93 | 1016.6 |
| 20260831140334 | 71 | 148 | 0.0 | 0.0 | 0.00 | 0.44 | 0.00 | 93 | 1016.6 |
| 20260831135330 | 71 | 198 | 0.0 | 0.0 | 0.00 | 0.50 | 0.00 | 93 | 1016.5 |
| 20260831134333 | 70 | 198 | 0.0 | 0.0 | 0.00 | 0.55 | 0.00 | 93 | 1016.5 |
| 20260831133330 | 70 | 198 | 0.0 | 0.0 | 0.00 | 0.60 | 0.00 | 93 | 1016.3 |
| 20260831132331 | 70 | 198 | 0.0 | 0.0 | 0.00 | 0.66 | 0.00 | 93 | 1016.4 |